SCP
-0 -0 -0 -0 -0 -0 -0 -0 -0 -0 -0 -0 -0 -0 -0 -0 -0 -0 -0 -0 0 0 0 -0 -0 -0 0 0 0 -0 -0 -0 0 -0 -0 -0 -0 0 0 -0 0 -0 0 0 0 0 0
-0 -0 -0 -0 -0 -0 -0 -0 -0 -0 -0 -0 -0 -0 -0 0 0 0 0 0 0 0 -0 -0 -0 -0 0 -0 -0 -0 -0 -0 0 -0 -0 -0 -0 -0 -0 -0 0 0 0 0 0 0 0
-0 -0 -0 -0 -0 -0 0 0 -0 -0 -0 -0 -0 -0 -0 0 0 0 0 0 -0 -0 -0 -0 -0 0 -0 0 -0 -0 -0 0 -0 -0 -0 -0 -0 -0 -0 -0 0 -0 -0 0 0 0 -0
-0 -0 -0 -0 -0 0 -0 0 0 -0 -0 -0 -0 -0 -0 -0 -0 -0 -0 -0 -0 -0 -0 -0 -0 -0 -0 0 0 0 0 0 0 0 -0 -0 -0 -0 -0 -0 -0 0 0 -0 0 0 0
-0 -0 -0 -0 -0 -0 0 0 0 0 0 0 0 0 -0 -0 -0 0 -0 -0 -0 -0 -0 -0 -0 -0 -0 0 -0 -0 0 -0 -0 0 0 0 -0 -0 -0 -0 -0 -0 0 0 0 0 0
-0 -0 -0 -0 -0 -0 0 0 0 0 0 0 0 0 0 0 0 0 0 0 0 0 -0 0 -0 -0 0 -0 -0 -0 0 0 -0 -0 -0 -0 -0 -0 -0 0 0 0 0 0 0 0 0
-0 -0 -0 -0 -0 -0 0 0 -0 0 0 0 0 0 0 0 0 0 0 0 0 -0 0 0 0 0 0 0 0 -0 -0 -0 0 -0 -0 -0 0 -0 0 0 -0 0 0 0 0 0 0
-0 -0 -0 -0 -0 -0 -0 0 0 0 0 0 0 0 0 0 0 0 0 0 0 0 0 -0 0 0 0 0 0 -0 -0 0 -0 0 -0 -0 -0 0 0 0 0 0 -0 -0 0 0 0
-0 -0 -0 -0 -0 -0 -0 0 0 0 0 0 0 0 0 0 0 0 -0 0 0 0 0 0 0 -0 0 -0 0 -0 -0 0 -0 0 -0 0 -0 0 0 -0 -0 -0 -0 0 0 -0 -0
-0 -0 -0 -0 -0 -0 -0 -0 -0 -0 0 0 0 0 0 0 0 0 0 -0 0 0 0 0 0 0 0 -0 -0 -0 -0 0 -0 0 -0 0 0 0 0 0 0 -0 0 0 -0 -0 -0
-0 -0 -0 -0 -0 -0 -0 -0 -0 0 0 0 0 0 0 -0 0 0 0 0 0 0 -0 0 0 0 0 0 -0 -0 0 0 -0 -0 -0 0 0 0 0 0 -0 -0 -0 -0 -0 -0 -0
-0 -0 -0 -0 -0 -0 -0 -0 -0 0 0 0 0 -0 0 0 0 0 0 0 -0 -0 0 0 0 0 -0 0 0 -0 -0 -0 0 -0 -0 -0 0 -0 -0 -0 0 -0 -0 -0 -0 -0 0
-0 -0 -0 -0 -0 -0 -0 -0 -0 -0 -0 -0 0 -0 -0 0 0 0 0 -0 -0 -0 -0 0 -0 -0 -0 -0 -0 -0 -0 -0 -0 -0 -0 -0 -0 -0 -0 -0 -0 -0 -0 -0 0 0 0
-0 -0 -0 -0 -0 -0 -0 -0 -0 -0 -0 -0 0 0 -0 0 0 0 0 0 0 0 0 -0 -0 -0 0 -0 -0 -0 -0 -0 -0 -0 -0 -0 -0 -0 -0 -0 -0 -0 -0 -0 -0 0 0
-0 -0 -0 -0 -0 -0 -0 -0 -0 -0 -0 0 -0 0 0 0 0 0 0 0 0 -0 0 0 -0 -0 -0 0 0 -0 -0 -0 0 -0 -0 -0 0 0 -0 0 -0 -0 -0 -0 -0 -0 0
-0 -0 -0 -0 -0 -0 -0 -0 -0 -0 -0 0 0 0 0 0 0 0 0 0 0 0 0 0 0 -0 -0 -0 -0 0 -0 0 0 0 0 -0 -0 -0 -0 0 -0 -0 0 -0 -0 -0 -0
-0 -0 -0 -0 -0 -0 -0 -0 -0 -0 -0 0 0 0 0 0 0 0 0 0 0 0 0 0 0 0 0 -0 -0 -0 -0 0 0 0 0 -0 -0 0 -0 -0 -0 -0 -0 -0 -0 -0 -0
-0 -0 -0 -0 -0 -0 -0 -0 -0 -0 -0 0 0 0 0 0 0 0 0 0 0 0 0 0 0 0 0 0 0 0 0 0 0 0 -0 0 0 0 -0 0 -0 -0 -0 -0 -0 0 0
-0 -0 -0 -0 -0 -0 -0 -0 -0 -0 -0 0 0 0 0 0 0 0 0 0 0 0 0 0 0 0 0 0 0 0 0 0 0 0 0 0 -0 -0 -0 -0 0 0 -0 -0 -0 0 -0
-0 -0 -0 -0 -0 -0 -0 -0 -0 -0 0 0 0 -0 0 0 0 0 0 0 0 0 0 0 0 0 0 0 0 0 0 0 0 0 0 0 -0 0 0 0 0 -0 -0 0 0 -0 -0
0 -0 -0 -0 -0 -0 -0 -0 -0 -0 -0 0 0 0 0 0 0 0 0 0 0 0 0 0 0 0 0 0 0 0 0 0 0 0 0 0 0 0 0 0 -0 -0 -0 -0 -0 0 -0
0 0 0 -0 -0 -0 -0 -0 -0 -0 -0 0 0 0 0 0 0 0 0 0 0 0 0 0 0 0 0 0 0 0 0 0 0 0 0 0 -0 0 0 -0 -0 -0 0 -0 -0 -0 -0
-0 -0 0 0 -0 -0 -0 -0 -0 -0 -0 0 0 0 0 0 0 0 0 0 0 0 0 0 0 0 0 0 0 0 0 0 0 0 0 0 0 0 0 0 0 0 0 0 0 -0 -0
-0 -0 -0 -0 0 -0 -0 -0 -0 -0 -0 0 0 0 0 0 0 0 0 0 0 0 0 0 0 0 0 0 0 -0 0 0 0 0 0 0 0 0 0 0 0 0 0 0 0 0 0
0 0 0 -0 0 0 0 -0 -0 -0 -0 0 0 0 0 0 0 0 0 0 0 0 0 0 0 0 0 0 0 0 0 0 0 0 0 0 0 0 0 0 0 0 0 0 0 0 1
0 0 0 0 0 0 0 0 0 -0 -0 0 0 0 0 0 0 0 0 0 0 0 0 0 0 0 0 0 0 0 0 0 0 0 0 0 0 0 0 0 0 0 0 0 0 0 1
0 0 0 0 0 0 0 0 0 0 0 0 0 0 0 0 0 0 0 0 0 0 0 0 0 0 0 0 0 0 0 0 0 0 0 0 0 0 0 0 0 0 0 0 0 1 1
0 0 0 0 0 0 0 0 0 0 0 0 0 0 0 0 0 0 0 0 0 0 0 0 0 0 0 0 0 0 0 0 0 0 0 0 0 0 0 0 0 0 0 0 1 0 0
0 0 0 0 0 0 0 0 0 0 0 0 0 0 0 0 0 0 0 0 0 0 0 0 0 0 0 0 0 0 0 0 0 0 0 0 0 0 0 0 0 0 0 0 0 0 0
Wind_Speed_500mb
46 45 43 42 40 37 33 30 27 23 19 18 17 16 15 14 14 14 13 13 12 12 11 11 10 10 9 17 19 3 15 17 18 17 17 17 21 10 15 9 7 10 12 13 12 4 10
45 45 45 44 44 42 40 35 32 28 23 21 19 17 17 16 15 14 14 13 12 12 11 10 9 8 9 31 2 6 9 14 17 22 21 16 15 9 16 11 13 11 20 21 7 11 6
44 45 45 46 46 45 44 42 38 34 29 24 21 18 17 16 16 15 13 12 12 12 12 10 8 8 16 20 9 9 10 14 19 24 20 20 12 21 15 23 6 16 25 18 10 13 11
43 45 46 45 46 47 47 46 45 41 36 29 23 21 18 16 15 14 13 11 11 11 11 9 6 6 16 18 15 18 15 15 19 20 18 9 17 23 18 18 23 16 22 11 15 9 10
42 44 46 47 47 46 48 47 47 47 41 34 27 22 18 15 14 13 12 9 9 9 9 8 1 8 16 11 19 25 22 18 17 19 19 13 19 31 30 21 23 19 17 8 11 11 8
41 44 47 48 48 47 48 48 49 50 47 38 29 23 19 14 13 12 11 7 5 7 8 7 11 13 17 21 25 26 25 17 17 18 21 25 29 27 26 21 17 15 10 11 14 7 15
41 44 47 49 50 49 49 50 51 52 50 39 30 22 17 13 13 13 16 6 4 7 25 11 9 8 14 16 21 28 27 23 18 20 26 28 23 25 27 4 15 17 18 19 15 11 19
42 45 47 50 51 50 50 51 53 54 49 38 29 20 16 12 14 17 23 15 11 5 15 26 14 9 11 20 23 28 27 24 23 25 27 18 23 28 8 7 17 21 25 29 2 7 20
43 45 48 50 51 50 51 53 54 55 48 34 24 15 10 10 13 19 26 17 7 6 18 21 22 19 22 20 24 34 31 30 18 24 19 28 13 2 5 20 23 28 30 15 21 22 33
42 45 47 49 49 50 51 54 56 55 45 32 19 10 5 12 3 11 18 20 12 5 12 22 23 20 19 21 16 25 34 24 15 21 24 22 25 8 20 21 21 30 19 14 20 23 18
41 43 46 46 48 51 53 56 57 55 40 29 16 7 12 26 16 11 13 12 12 5 13 31 25 24 26 23 34 24 30 22 26 18 15 11 16 18 24 23 17 24 21 22 28 29 37
40 41 44 45 48 52 54 57 57 55 37 20 11 2 17 18 23 12 7 11 12 14 7 18 23 27 29 26 18 27 31 23 16 16 23 25 8 16 26 17 17 20 30 39 40 32 14
39 41 43 45 49 52 55 58 58 53 34 12 5 8 20 30 8 9 12 18 14 19 29 21 31 37 34 22 22 29 28 30 21 24 29 33 30 29 24 26 27 31 35 25 15 21 7
40 41 43 47 50 53 55 57 58 51 27 9 6 16 20 10 5 13 15 18 22 15 22 28 30 32 29 26 27 29 26 26 26 21 17 11 16 32 22 28 30 22 25 17 25 14 9
41 42 44 48 51 53 56 58 57 47 18 9 14 15 9 5 12 13 20 22 1 17 14 20 25 29 22 22 8 24 28 27 10 19 18 5 5 18 15 14 18 19 20 20 24 33 14
41 44 46 49 51 53 56 57 56 43 11 10 13 9 13 13 12 8 17 22 7 11 12 22 23 26 21 26 19 18 23 3 5 5 20 19 13 20 33 16 23 25 24 23 11 15 24
40 44 47 49 51 52 55 58 56 40 9 11 9 15 12 12 10 20 22 15 10 10 13 8 3 14 14 22 25 26 22 18 3 7 13 28 20 4 16 23 30 21 27 16 26 14 20
41 43 46 48 50 52 54 57 56 40 10 12 12 8 18 16 19 25 8 3 2 15 12 7 12 3 2 5 16 9 8 10 3 11 20 2 20 27 27 5 15 21 28 31 19 16 10
41 43 45 47 49 51 52 55 54 42 17 11 15 10 14 18 14 17 9 16 4 12 1 5 6 9 5 1 8 14 1 17 7 14 20 23 17 24 30 33 30 27 31 25 34 31 23
38 42 44 45 47 51 51 52 51 41 17 8 15 10 14 25 26 28 16 14 17 2 7 3 3 6 7 8 6 3 12 13 6 12 11 13 28 34 29 22 17 27 33 18 27 25 24
37 40 42 42 44 48 50 51 50 38 17 1 9 7 11 11 15 10 10 4 7 13 4 5 6 8 9 9 10 15 9 13 16 18 14 16 29 31 35 38 34 36 32 35 39 39 32
36 37 39 39 40 43 46 49 50 40 22 11 16 14 4 9 6 14 12 11 11 9 10 10 18 6 12 16 15 22 18 14 14 11 14 19 26 25 36 37 36 40 40 32 39 40 41
35 35 35 36 35 37 41 45 47 48 28 16 15 9 11 10 9 15 3 11 3 5 7 9 11 14 19 15 12 23 27 29 27 21 23 24 24 24 31 30 31 30 34 30 28 34 36
35 32 32 32 31 32 35 38 40 41 39 26 22 12 15 4 10 13 9 3 10 4 17 3 9 13 13 17 25 35 39 37 33 28 30 25 21 17 24 28 30 22 15 13 22 30 30
35 31 29 28 27 26 28 32 34 35 33 24 26 13 11 8 10 6 5 8 10 11 18 17 13 8 15 20 19 22 24 20 25 20 20 19 19 20 22 24 26 24 13 11 19 19 26
34 30 27 25 24 23 23 26 27 28 28 20 23 22 9 16 10 10 13 6 16 9 7 16 5 14 18 19 17 21 20 15 3 16 13 18 16 19 21 23 21 17 14 11 9 18 21
34 29 25 23 22 21 19 20 22 23 25 21 17 26 9 16 6 8 12 14 8 11 13 2 6 14 13 15 18 20 23 9 12 23 13 18 14 24 21 22 22 16 7 7 16 8 12
31 29 25 23 21 19 17 16 18 19 20 20 11 24 16 13 21 6 3 10 11 13 13 13 13 19 15 14 16 18 11 12 11 20 16 15 18 20 21 23 28 16 12 9 10 4 11
30 28 25 23 21 20 17 15 14 14 15 16 8 20 21 10 16 19 24 26 24 20 18 13 16 10 14 9 5 10 9 13 13 21 10 15 15 15 15 11 8 8 9 9 12 12 7
Wind_Direction_500mb
40 38 35 30 26 20 13 6 355 344 333 323 315 305 292 282 277 272 266 262 257 251 249 252 258 256 235 238 250 283 198 206 204 204 234 239 255 270 262 344 300 251 351 301 4 113 273
36 34 31 27 24 21 16 10 -0 347 337 325 315 307 297 284 273 268 263 259 254 247 242 242 249 251 236 250 187 201 202 209 198 205 222 228 270 331 299 291 281 353 292 282 352 17 258
30 26 25 22 19 16 12 8 4 354 342 324 312 305 297 288 275 264 261 257 250 243 237 235 240 250 255 240 212 197 198 194 206 208 226 231 258 255 331 274 54 283 277 281 149 344 324
25 22 17 15 13 10 7 2 360 356 345 329 317 303 294 288 277 263 252 250 249 240 231 225 225 229 253 211 223 210 201 200 200 215 233 238 246 267 270 299 260 253 258 265 92 327 102
17 16 13 10 6 4 3 359 356 352 346 335 319 306 295 281 268 255 243 239 242 227 212 198 180 216 235 242 205 191 189 193 197 216 229 240 252 255 272 241 264 197 284 346 291 184 322
10 9 8 5 2 -0 358 356 353 349 344 335 322 305 291 275 256 242 221 210 218 207 191 192 234 235 227 211 174 182 187 190 197 214 223 231 235 245 229 248 268 344 327 335 314 329 329
3 2 1 0 359 357 355 353 351 348 344 337 325 305 283 261 240 219 190 154 198 212 214 261 190 266 137 150 171 187 192 205 220 210 225 197 233 231 249 237 349 304 287 288 269 25 311
357 356 356 356 356 355 353 351 349 347 344 338 329 305 276 244 223 208 197 204 337 351 219 221 214 243 179 170 178 186 189 208 209 227 214 207 233 261 267 322 255 246 265 269 1 196 271
353 352 352 353 354 354 352 350 348 346 343 340 333 316 277 225 213 210 202 206 262 292 257 173 202 203 183 194 198 183 196 210 219 234 209 253 335 219 247 224 237 239 252 325 332 303 259
347 349 351 353 353 354 352 350 347 345 342 340 333 316 227 164 151 192 223 233 232 263 254 142 189 205 186 206 215 188 195 208 220 254 227 252 254 221 225 241 248 272 16 302 278 283 293
346 348 350 352 354 354 351 350 347 345 342 338 331 314 185 165 151 167 164 173 191 221 237 149 142 148 179 207 128 186 190 218 257 209 252 177 223 212 238 246 240 298 320 290 284 271 270
352 352 353 354 355 353 351 351 349 346 344 338 332 245 169 176 167 170 177 175 161 232 171 155 149 181 181 217 182 150 186 227 273 249 226 276 248 237 239 239 254 277 281 268 250 240 260
356 356 356 356 355 353 352 352 351 349 349 357 0 156 163 139 131 182 166 164 215 254 137 156 173 175 198 178 155 173 191 201 226 208 213 204 216 216 227 253 243 236 254 277 280 243 63
358 358 357 357 356 355 354 354 355 353 359 29 93 144 156 168 200 158 168 225 252 97 190 172 159 178 208 166 177 190 187 210 224 281 278 255 186 188 184 236 279 248 310 305 312 305 138
359 359 358 358 357 357 355 355 358 356 8 67 118 144 180 207 142 170 233 234 74 182 126 165 158 184 183 187 192 194 212 215 199 202 285 297 198 149 169 230 251 279 245 299 293 286 243
357 358 359 359 359 359 357 357 359 358 8 141 119 181 167 197 197 205 247 267 98 8 285 177 176 194 170 180 215 204 183 85 213 272 311 311 268 203 192 213 236 270 322 289 305 343 317
354 355 357 358 359 359 1 358 359 1 358 170 158 211 180 183 199 237 252 91 126 145 246 250 266 203 178 170 216 196 169 111 240 270 284 292 297 279 246 213 249 208 234 228 279 309 307
352 353 354 357 358 359 1 1 359 3 8 178 276 238 169 174 222 236 231 93 256 135 185 186 306 157 196 110 208 248 281 75 32 309 278 319 300 290 279 171 279 280 286 283 270 248 284
349 350 352 354 357 358 1 3 0 1 2 205 260 103 183 194 246 207 106 150 330 178 334 198 138 322 311 199 280 276 95 91 322 295 3 354 265 270 249 245 12 322 269 252 274 281 258
343 347 349 351 356 357 0 4 4 360 2 211 275 182 162 215 271 289 167 176 147 88 119 9 115 273 244 230 180 303 233 142 250 296 29 295 274 280 288 301 215 240 278 288 269 281 285
334 340 346 349 354 357 360 4 9 7 17 357 249 32 357 197 204 270 296 10 192 178 159 277 172 308 316 291 255 249 247 279 209 156 255 257 273 283 287 287 296 291 283 287 283 292 291
326 332 339 345 351 357 360 4 10 20 44 29 336 332 271 335 194 245 152 207 296 123 292 175 273 121 298 290 311 320 329 284 275 276 251 260 278 283 280 281 279 275 272 266 268 269 273
321 324 330 338 345 354 359 4 11 20 47 36 2 326 293 124 228 236 72 59 66 305 166 315 330 294 261 17 356 305 296 288 281 270 275 286 283 281 281 295 281 272 260 266 269 272 280
312 315 320 327 336 348 356 2 10 18 30 40 5 338 285 155 262 4 12 326 284 329 306 337 296 278 23 323 303 273 256 257 261 263 261 250 264 274 272 280 270 269 34 321 295 304 301
303 305 306 315 325 338 352 359 6 13 21 46 8 24 337 305 347 195 273 307 281 236 243 259 278 284 303 289 276 256 247 231 245 252 256 252 257 266 268 260 267 258 61 360 343 313 12
296 296 293 300 312 324 342 353 1 8 16 46 5 15 330 306 74 353 306 307 293 280 227 227 260 283 286 268 266 251 266 310 202 187 227 264 231 261 258 278 284 79 61 25 348 250 48
289 287 283 286 296 309 326 344 351 360 8 14 1 14 355 304 74 333 314 337 323 280 278 253 257 278 228 258 254 258 263 297 259 266 212 219 242 248 250 254 262 70 359 339 258 51 34
283 281 275 273 279 291 307 327 341 350 1 17 336 8 20 310 300 296 242 277 264 246 279 58 268 205 266 257 265 269 231 264 253 271 288 262 258 252 234 250 259 25 279 315 49 83 3
279 277 270 263 268 277 288 304 325 335 348 2 3 338 333 278 292 292 271 260 252 257 285 273 304 303 340 292 310 301 270 253 262 285 123 255 271 320 315 24 139 2 352 18 319 302 277
Wind_Speed_850mb
46 45 43 42 40 37 33 30 27 23 19 18 17 16 15 14 14 14 13 13 12 12 11 11 10 10 9 17 19 3 15 17 18 17 17 17 21 10 15 9 7 10 12 13 12 4 10
45 45 45 44 44 42 40 35 32 28 23 21 19 17 17 16 15 14 14 13 12 12 11 10 9 8 9 31 2 6 9 14 17 22 21 16 15 9 16 11 13 11 20 21 7 11 6
44 45 45 46 46 45 44 42 38 34 29 24 21 18 17 16 16 15 13 12 12 12 12 10 8 8 16 20 9 9 10 14 19 24 20 20 12 21 15 23 6 16 25 18 10 13 11
43 45 46 45 46 47 47 46 45 41 36 29 23 21 18 16 15 14 13 11 11 11 11 9 6 6 16 18 15 18 15 15 19 20 18 9 17 23 18 18 23 16 22 11 15 9 10
42 44 46 47 47 46 48 47 47 47 41 34 27 22 18 15 14 13 12 9 9 9 9 8 1 8 16 11 19 25 22 18 17 19 19 13 19 31 30 21 23 19 17 8 11 11 8
41 44 47 48 48 47 48 48 49 50 47 38 29 23 19 14 13 12 11 7 5 7 8 7 11 13 17 21 25 26 25 17 17 18 21 25 29 27 26 21 17 15 10 11 14 7 15
41 44 47 49 50 49 49 50 51 52 50 39 30 22 17 13 13 13 16 6 4 7 25 11 9 8 14 16 21 28 27 23 18 20 26 28 23 25 27 4 15 17 18 19 15 11 19
42 45 47 50 51 50 50 51 53 54 49 38 29 20 16 12 14 17 23 15 11 5 15 26 14 9 11 20 23 28 27 24 23 25 27 18 23 28 8 7 17 21 25 29 2 7 20
43 45 48 50 51 50 51 53 54 55 48 34 24 15 10 10 13 19 26 17 7 6 18 21 22 19 22 20 24 34 31 30 18 24 19 28 13 2 5 20 23 28 30 15 21 22 33
42 45 47 49 49 50 51 54 56 55 45 32 19 10 5 12 3 11 18 20 12 5 12 22 23 20 19 21 16 25 34 24 15 21 24 22 25 8 20 21 21 30 19 14 20 23 18
41 43 46 46 48 51 53 56 57 55 40 29 16 7 12 26 16 11 13 12 12 5 13 31 25 24 26 23 34 24 30 22 26 18 15 11 16 18 24 23 17 24 21 22 28 29 37
40 41 44 45 48 52 54 57 57 55 37 20 11 2 17 18 23 12 7 11 12 14 7 18 23 27 29 26 18 27 31 23 16 16 23 25 8 16 26 17 17 20 30 39 40 32 14
39 41 43 45 49 52 55 58 58 53 34 12 5 8 20 30 8 9 12 18 14 19 29 21 31 37 34 22 22 29 28 30 21 24 29 33 30 29 24 26 27 31 35 25 15 21 7
40 41 43 47 50 53 55 57 58 51 27 9 6 16 20 10 5 13 15 18 22 15 22 28 30 32 29 26 27 29 26 26 26 21 17 11 16 32 22 28 30 22 25 17 25 14 9
41 42 44 48 51 53 56 58 57 47 18 9 14 15 9 5 12 13 20 22 1 17 14 20 25 29 22 22 8 24 28 27 10 19 18 5 5 18 15 14 18 19 20 20 24 33 14
41 44 46 49 51 53 56 57 56 43 11 10 13 9 13 13 12 8 17 22 7 11 12 22 23 26 21 26 19 18 23 3 5 5 20 19 13 20 33 16 23 25 24 23 11 15 24
40 44 47 49 51 52 55 58 56 40 9 11 9 15 12 12 10 20 22 15 10 10 13 8 3 14 14 22 25 26 22 18 3 7 13 28 20 4 16 23 30 21 27 16 26 14 20
41 43 46 48 50 52 54 57 56 40 10 12 12 8 18 16 19 25 8 3 2 15 12 7 12 3 2 5 16 9 8 10 3 11 20 2 20 27 27 5 15 21 28 31 19 16 10
41 43 45 47 49 51 52 55 54 42 17 11 15 10 14 18 14 17 9 16 4 12 1 5 6 9 5 1 8 14 1 17 7 14 20 23 17 24 30 33 30 27 31 25 34 31 23
38 42 44 45 47 51 51 52 51 41 17 8 15 10 14 25 26 28 16 14 17 2 7 3 3 6 7 8 6 3 12 13 6 12 11 13 28 34 29 22 17 27 33 18 27 25 24
37 40 42 42 44 48 50 51 50 38 17 1 9 7 11 11 15 10 10 4 7 13 4 5 6 8 9 9 10 15 9 13 16 18 14 16 29 31 35 38 34 36 32 35 39 39 32
36 37 39 39 40 43 46 49 50 40 22 11 16 14 4 9 6 14 12 11 11 9 10 10 18 6 12 16 15 22 18 14 14 11 14 19 26 25 36 37 36 40 40 32 39 40 41
35 35 35 36 35 37 41 45 47 48 28 16 15 9 11 10 9 15 3 11 3 5 7 9 11 14 19 15 12 23 27 29 27 21 23 24 24 24 31 30 31 30 34 30 28 34 36
35 32 32 32 31 32 35 38 40 41 39 26 22 12 15 4 10 13 9 3 10 4 17 3 9 13 13 17 25 35 39 37 33 28 30 25 21 17 24 28 30 22 15 13 22 30 30
35 31 29 28 27 26 28 32 34 35 33 24 26 13 11 8 10 6 5 8 10 11 18 17 13 8 15 20 19 22 24 20 25 20 20 19 19 20 22 24 26 24 13 11 19 19 26
34 30 27 25 24 23 23 26 27 28 28 20 23 22 9 16 10 10 13 6 16 9 7 16 5 14 18 19 17 21 20 15 3 16 13 18 16 19 21 23 21 17 14 11 9 18 21
34 29 25 23 22 21 19 20 22 23 25 21 17 26 9 16 6 8 12 14 8 11 13 2 6 14 13 15 18 20 23 9 12 23 13 18 14 24 21 22 22 16 7 7 16 8 12
31 29 25 23 21 19 17 16 18 19 20 20 11 24 16 13 21 6 3 10 11 13 13 13 13 19 15 14 16 18 11 12 11 20 16 15 18 20 21 23 28 16 12 9 10 4 11
30 28 25 23 21 20 17 15 14 14 15 16 8 20 21 10 16 19 24 26 24 20 18 13 16 10 14 9 5 10 9 13 13 21 10 15 15 15 15 11 8 8 9 9 12 12 7
Wind_Direction_850mb
40 38 35 30 26 20 13 6 355 344 333 323 315 305 292 282 277 272 266 262 257 251 249 252 258 256 235 238 250 283 198 206 204 204 234 239 255 270 262 344 300 251 351 301 4 113 273
36 34 31 27 24 21 16 10 -0 347 337 325 315 307 297 284 273 268 263 259 254 247 242 242 249 251 236 250 187 201 202 209 198 205 222 228 270 331 299 291 281 353 292 282 352 17 258
30 26 25 22 19 16 12 8 4 354 342 324 312 305 297 288 275 264 261 257 250 243 237 235 240 250 255 240 212 197 198 194 206 208 226 231 258 255 331 274 54 283 277 281 149 344 324
25 22 17 15 13 10 7 2 360 356 345 329 317 303 294 288 277 263 252 250 249 240 231 225 225 229 253 211 223 210 201 200 200 215 233 238 246 267 270 299 260 253 258 265 92 327 102
17 16 13 10 6 4 3 359 356 352 346 335 319 306 295 281 268 255 243 239 242 227 212 198 180 216 235 242 205 191 189 193 197 216 229 240 252 255 272 241 264 197 284 346 291 184 322
10 9 8 5 2 -0 358 356 353 349 344 335 322 305 291 275 256 242 221 210 218 207 191 192 234 235 227 211 174 182 187 190 197 214 223 231 235 245 229 248 268 344 327 335 314 329 329
3 2 1 0 359 357 355 353 351 348 344 337 325 305 283 261 240 219 190 154 198 212 214 261 190 266 137 150 171 187 192 205 220 210 225 197 233 231 249 237 349 304 287 288 269 25 311
357 356 356 356 356 355 353 351 349 347 344 338 329 305 276 244 223 208 197 204 337 351 219 221 214 243 179 170 178 186 189 208 209 227 214 207 233 261 267 322 255 246 265 269 1 196 271
353 352 352 353 354 354 352 350 348 346 343 340 333 316 277 225 213 210 202 206 262 292 257 173 202 203 183 194 198 183 196 210 219 234 209 253 335 219 247 224 237 239 252 325 332 303 259
347 349 351 353 353 354 352 350 347 345 342 340 333 316 227 164 151 192 223 233 232 263 254 142 189 205 186 206 215 188 195 208 220 254 227 252 254 221 225 241 248 272 16 302 278 283 293
346 348 350 352 354 354 351 350 347 345 342 338 331 314 185 165 151 167 164 173 191 221 237 149 142 148 179 207 128 186 190 218 257 209 252 177 223 212 238 246 240 298 320 290 284 271 270
352 352 353 354 355 353 351 351 349 346 344 338 332 245 169 176 167 170 177 175 161 232 171 155 149 181 181 217 182 150 186 227 273 249 226 276 248 237 239 239 254 277 281 268 250 240 260
356 356 356 356 355 353 352 352 351 349 349 357 0 156 163 139 131 182 166 164 215 254 137 156 173 175 198 178 155 173 191 201 226 208 213 204 216 216 227 253 243 236 254 277 280 243 63
358 358 357 357 356 355 354 354 355 353 359 29 93 144 156 168 200 158 168 225 252 97 190 172 159 178 208 166 177 190 187 210 224 281 278 255 186 188 184 236 279 248 310 305 312 305 138
359 359 358 358 357 357 355 355 358 356 8 67 118 144 180 207 142 170 233 234 74 182 126 165 158 184 183 187 192 194 212 215 199 202 285 297 198 149 169 230 251 279 245 299 293 286 243
357 358 359 359 359 359 357 357 359 358 8 141 119 181 167 197 197 205 247 267 98 8 285 177 176 194 170 180 215 204 183 85 213 272 311 311 268 203 192 213 236 270 322 289 305 343 317
354 355 357 358 359 359 1 358 359 1 358 170 158 211 180 183 199 237 252 91 126 145 246 250 266 203 178 170 216 196 169 111 240 270 284 292 297 279 246 213 249 208 234 228 279 309 307
352 353 354 357 358 359 1 1 359 3 8 178 276 238 169 174 222 236 231 93 256 135 185 186 306 157 196 110 208 248 281 75 32 309 278 319 300 290 279 171 279 280 286 283 270 248 284
349 350 352 354 357 358 1 3 0 1 2 205 260 103 183 194 246 207 106 150 330 178 334 198 138 322 311 199 280 276 95 91 322 295 3 354 265 270 249 245 12 322 269 252 274 281 258
343 347 349 351 356 357 0 4 4 360 2 211 275 182 162 215 271 289 167 176 147 88 119 9 115 273 244 230 180 303 233 142 250 296 29 295 274 280 288 301 215 240 278 288 269 281 285
334 340 346 349 354 357 360 4 9 7 17 357 249 32 357 197 204 270 296 10 192 178 159 277 172 308 316 291 255 249 247 279 209 156 255 257 273 283 287 287 296 291 283 287 283 292 291
326 332 339 345 351 357 360 4 10 20 44 29 336 332 271 335 194 245 152 207 296 123 292 175 273 121 298 290 311 320 329 284 275 276 251 260 278 283 280 281 279 275 272 266 268 269 273
321 324 330 338 345 354 359 4 11 20 47 36 2 326 293 124 228 236 72 59 66 305 166 315 330 294 261 17 356 305 296 288 281 270 275 286 283 281 281 295 281 272 260 266 269 272 280
312 315 320 327 336 348 356 2 10 18 30 40 5 338 285 155 262 4 12 326 284 329 306 337 296 278 23 323 303 273 256 257 261 263 261 250 264 274 272 280 270 269 34 321 295 304 301
303 305 306 315 325 338 352 359 6 13 21 46 8 24 337 305 347 195 273 307 281 236 243 259 278 284 303 289 276 256 247 231 245 252 256 252 257 266 268 260 267 258 61 360 343 313 12
296 296 293 300 312 324 342 353 1 8 16 46 5 15 330 306 74 353 306 307 293 280 227 227 260 283 286 268 266 251 266 310 202 187 227 264 231 261 258 278 284 79 61 25 348 250 48
289 287 283 286 296 309 326 344 351 360 8 14 1 14 355 304 74 333 314 337 323 280 278 253 257 278 228 258 254 258 263 297 259 266 212 219 242 248 250 254 262 70 359 339 258 51 34
283 281 275 273 279 291 307 327 341 350 1 17 336 8 20 310 300 296 242 277 264 246 279 58 268 205 266 257 265 269 231 264 253 271 288 262 258 252 234 250 259 25 279 315 49 83 3
279 277 270 263 268 277 288 304 325 335 348 2 3 338 333 278 292 292 271 260 252 257 285 273 304 303 340 292 310 301 270 253 262 285 123 255 271 320 315 24 139 2 352 18 319 302 277